When you browse on this site, cookies collect data to enhance your experience and personalize the content and advertising you see.
Visit our Privacy Policy to learn more. By continuing to use the site, you agree to this use of cookies and data.
EN

Hourly Weather Mikoszewo

Today, 7 July, Tuesday

Time Temperature Precipitation Wind Pressure Humidity
00:00 +11°C° 0 mm 6 mps 757 mmHg 81%
01:00 +11°C° 0 mm 6 mps 757 mmHg 83%
02:00 +11°C° 0 mm 6 mps 757 mmHg 84%
03:00 +10°C° 0 mm 6 mps 757 mmHg 84%
04:00 +10°C° 0 mm 6 mps 757 mmHg 85%
05:00 +11°C° 0 mm 7 mps 758 mmHg 79%
06:00 +12°C° 0 mm 7 mps 758 mmHg 74%
07:00 +15°C° 0 mm 7 mps 758 mmHg 68%
08:00 +15°C° 0.1 mm 7 mps 759 mmHg 66%
09:00 +15°C° 0.1 mm 7 mps 759 mmHg 64%
10:00 +16°C° 0.1 mm 7 mps 759 mmHg 62%
11:00 +16°C° 0 mm 7 mps 759 mmHg 62%
12:00 +16°C° 0 mm 7 mps 760 mmHg 61%
13:00 +17°C° 0 mm 6 mps 760 mmHg 61%
14:00 +17°C° 0.1 mm 6 mps 760 mmHg 61%
15:00 +17°C° 0.1 mm 6 mps 760 mmHg 60%
16:00 +19°C° 0.1 mm 6 mps 760 mmHg 60%
17:00 +17°C° 0 mm 6 mps 760 mmHg 64%
18:00 +16°C° 0 mm 5 mps 759 mmHg 68%
19:00 +15°C° 0 mm 4 mps 759 mmHg 73%
20:00 +14°C° 0 mm 4 mps 759 mmHg 75%
21:00 +13°C° 0 mm 4 mps 759 mmHg 77%
22:00 +11°C° 0 mm 4 mps 759 mmHg 80%
23:00 +11°C° 0 mm 4 mps 759 mmHg 82%

Tomorrow, 8 July, Wednesday

Time Temperature Precipitation Wind Pressure Humidity
00:00 +10°C° 0 mm 5 mps 758 mmHg 83%
01:00 +10°C° 0 mm 5 mps 758 mmHg 85%
02:00 +10°C° 0.2 mm 6 mps 758 mmHg 87%
03:00 +10°C° 0.2 mm 6 mps 758 mmHg 88%
04:00 +10°C° 0.2 mm 6 mps 757 mmHg 90%
05:00 +11°C° 0.3 mm 6 mps 757 mmHg 89%
06:00 +11°C° 0.3 mm 7 mps 757 mmHg 89%
07:00 +12°C° 0.3 mm 7 mps 757 mmHg 88%
08:00 +14°C° 0.3 mm 7 mps 758 mmHg 83%
09:00 +15°C° 0.3 mm 7 mps 758 mmHg 78%
10:00 +16°C° 0.3 mm 7 mps 758 mmHg 73%
11:00 +16°C° 0.5 mm 6 mps 758 mmHg 73%
12:00 +16°C° 0.5 mm 6 mps 758 mmHg 72%
13:00 +17°C° 0.5 mm 6 mps 758 mmHg 72%
14:00 +17°C° 0.6 mm 6 mps 758 mmHg 72%
15:00 +17°C° 0.6 mm 6 mps 758 mmHg 73%
16:00 +17°C° 0.6 mm 6 mps 758 mmHg 74%
17:00 +16°C° 0.2 mm 6 mps 758 mmHg 76%
18:00 +15°C° 0.2 mm 5 mps 758 mmHg 78%
19:00 +14°C° 0.2 mm 5 mps 758 mmHg 80%
20:00 +13°C° 0 mm 5 mps 758 mmHg 82%
21:00 +12°C° 0 mm 5 mps 759 mmHg 84%
22:00 +9°C° 0 mm 5 mps 759 mmHg 86%
23:00 +9°C° 0 mm 5 mps 759 mmHg 87%

Day after tomorrow, 9 July, Thursday

Time Temperature Precipitation Wind Pressure Humidity
00:00 +9°C° 0 mm 5 mps 759 mmHg 89%
01:00 +9°C° 0 mm 5 mps 760 mmHg 91%
02:00 +8°C° 0 mm 5 mps 760 mmHg 91%
03:00 +8°C° 0 mm 5 mps 760 mmHg 91%
04:00 +8°C° 0 mm 5 mps 760 mmHg 92%
05:00 +10°C° 0 mm 5 mps 760 mmHg 87%
06:00 +13°C° 0 mm 5 mps 761 mmHg 82%
07:00 +14°C° 0 mm 5 mps 761 mmHg 77%
08:00 +16°C° 0 mm 5 mps 761 mmHg 71%
09:00 +17°C° 0 mm 5 mps 761 mmHg 65%
10:00 +19°C° 0 mm 4 mps 762 mmHg 59%
11:00 +20°C° 0.1 mm 4 mps 762 mmHg 57%
12:00 +20°C° 0.1 mm 4 mps 762 mmHg 56%
13:00 +20°C° 0.1 mm 3 mps 762 mmHg 54%
14:00 +20°C° 0.1 mm 3 mps 761 mmHg 56%
15:00 +20°C° 0.1 mm 3 mps 761 mmHg 59%
16:00 +20°C° 0.1 mm 4 mps 761 mmHg 61%
17:00 +19°C° 0 mm 3 mps 761 mmHg 67%
18:00 +18°C° 0 mm 3 mps 761 mmHg 74%
19:00 +16°C° 0 mm 3 mps 761 mmHg 81%
20:00 +14°C° 0 mm 3 mps 761 mmHg 83%
21:00 +14°C° 0 mm 2 mps 761 mmHg 86%
22:00 +13°C° 0 mm 2 mps 761 mmHg 89%
23:00 +13°C° 0 mm 2 mps 761 mmHg 89%

10 July, Friday

Time Temperature Precipitation Wind Pressure Humidity
00:00 +13°C° 0 mm 2 mps 760 mmHg 90%
01:00 +12°C° 0 mm 3 mps 760 mmHg 91%
02:00 +13°C° 0 mm 3 mps 759 mmHg 91%
03:00 +13°C° 0 mm 3 mps 759 mmHg 91%
04:00 +14°C° 0 mm 3 mps 758 mmHg 91%
05:00 +14°C° 0.1 mm 4 mps 758 mmHg 92%
06:00 +15°C° 0.1 mm 5 mps 758 mmHg 93%
07:00 +15°C° 0.1 mm 5 mps 757 mmHg 94%
08:00 +16°C° 0.2 mm 6 mps 757 mmHg 91%
09:00 +19°C° 0.2 mm 6 mps 756 mmHg 88%
10:00 +20°C° 0.2 mm 7 mps 756 mmHg 86%
11:00 +22°C° 0 mm 6 mps 755 mmHg 79%
12:00 +23°C° 0 mm 6 mps 755 mmHg 73%
13:00 +24°C° 0 mm 6 mps 754 mmHg 67%
14:00 +23°C° 1.2 mm 7 mps 754 mmHg 73%
15:00 +22°C° 1.2 mm 7 mps 753 mmHg 79%
16:00 +21°C° 1.2 mm 8 mps 753 mmHg 85%
17:00 +21°C° 0.5 mm 7 mps 753 mmHg 86%
18:00 +20°C° 0.5 mm 7 mps 753 mmHg 87%
19:00 +18°C° 0.5 mm 7 mps 752 mmHg 88%
20:00 +16°C° 0 mm 7 mps 753 mmHg 85%
21:00 +15°C° 0 mm 8 mps 754 mmHg 82%
22:00 +12°C° 0 mm 9 mps 754 mmHg 80%
23:00 +11°C° 0 mm 9 mps 755 mmHg 79%

11 July, Saturday

Time Temperature Precipitation Wind Pressure Humidity
00:00 +11°C° 0 mm 9 mps 755 mmHg 78%
01:00 +10°C° 0 mm 9 mps 755 mmHg 77%
02:00 +10°C° 0 mm 9 mps 756 mmHg 77%
03:00 +10°C° 0 mm 9 mps 756 mmHg 77%
04:00 +10°C° 0 mm 9 mps 756 mmHg 77%
05:00 +11°C° 0 mm 9 mps 757 mmHg 74%
06:00 +12°C° 0 mm 10 mps 757 mmHg 72%
07:00 +13°C° 0 mm 10 mps 758 mmHg 69%
08:00 +13°C° 0 mm 10 mps 758 mmHg 68%
09:00 +14°C° 0 mm 10 mps 759 mmHg 66%
10:00 +14°C° 0 mm 10 mps 759 mmHg 65%
11:00 +14°C° 0 mm 10 mps 760 mmHg 65%
12:00 +15°C° 0 mm 9 mps 760 mmHg 65%
13:00 +15°C° 0 mm 9 mps 760 mmHg 66%
14:00 +16°C° 0 mm 9 mps 761 mmHg 63%
15:00 +17°C° 0 mm 9 mps 761 mmHg 61%
16:00 +18°C° 0 mm 8 mps 761 mmHg 59%
17:00 +17°C° 0.1 mm 7 mps 761 mmHg 64%
18:00 +16°C° 0.1 mm 6 mps 761 mmHg 70%
19:00 +15°C° 0.1 mm 6 mps 762 mmHg 75%
20:00 +14°C° 0 mm 6 mps 762 mmHg 78%
21:00 +11°C° 0 mm 6 mps 762 mmHg 82%
22:00 +10°C° 0 mm 6 mps 763 mmHg 85%
23:00 +10°C° 0 mm 6 mps 763 mmHg 87%

12 July, Sunday

Time Temperature Precipitation Wind Pressure Humidity
00:00 +9°C° 0 mm 6 mps 763 mmHg 88%
01:00 +9°C° 0 mm 6 mps 763 mmHg 89%
02:00 +8°C° 0 mm 5 mps 763 mmHg 90%
03:00 +8°C° 0 mm 5 mps 763 mmHg 91%
04:00 +8°C° 0 mm 5 mps 763 mmHg 92%
05:00 +9°C° 0.1 mm 5 mps 763 mmHg 87%
06:00 +12°C° 0.1 mm 5 mps 764 mmHg 82%
07:00 +14°C° 0.1 mm 5 mps 764 mmHg 77%
08:00 +14°C° 0.2 mm 5 mps 764 mmHg 75%
09:00 +15°C° 0.2 mm 5 mps 765 mmHg 72%
10:00 +16°C° 0.2 mm 5 mps 765 mmHg 70%
11:00 +16°C° 0.2 mm 5 mps 765 mmHg 68%
12:00 +16°C° 0.2 mm 5 mps 765 mmHg 67%
13:00 +17°C° 0.2 mm 5 mps 765 mmHg 66%
14:00 +17°C° 0.1 mm 5 mps 765 mmHg 65%
15:00 +17°C° 0.1 mm 5 mps 766 mmHg 64%
16:00 +17°C° 0.1 mm 5 mps 766 mmHg 62%
17:00 +16°C° 0 mm 5 mps 766 mmHg 67%
18:00 +15°C° 0 mm 4 mps 766 mmHg 71%
19:00 +14°C° 0 mm 4 mps 766 mmHg 75%
20:00 +13°C° 0 mm 4 mps 766 mmHg 80%
21:00 +12°C° 0 mm 3 mps 766 mmHg 84%
22:00 +10°C° 0 mm 3 mps 766 mmHg 89%
23:00 +10°C° 0 mm 3 mps 766 mmHg 91%
Show more